GFSSE_sfc_wetblb_129.txt.gz
Wetbulb
70.35 71.74 72.39 73.44 73.61 73.55 73.62 73.58 73.15 73.15 73.52 74.06 73.78 73.81 73.87 73.92 73.70 73.87 74.46 75.06 75.29 75.59 75.09 74.67 74.66 74.10 73.77 73.54 73.03 72.37 72.59 72.22 72.21 72.87 73.35 74.02 73.64 73.47 73.30 73.48 72.71 71.77 72.91
71.29 71.95 71.49 72.88 73.28 73.73 73.67 73.63 73.50 73.44 73.75 74.06 73.80 73.94 73.70 73.71 73.66 73.77 74.26 74.84 75.36 75.51 74.59 74.37 74.52 74.05 73.57 72.63 72.49 72.36 72.43 71.53 71.37 71.89 72.92 73.60 73.85 73.17 73.00 72.22 71.77 71.92 72.38
71.20 72.13 72.29 72.00 72.86 73.50 73.77 73.97 74.00 74.12 74.33 74.08 73.87 73.92 73.73 73.88 73.86 73.84 73.79 74.19 74.99 75.06 74.85 74.37 74.40 73.18 73.18 72.86 72.08 72.06 72.25 71.94 71.27 71.20 71.40 69.70 70.70 72.75 72.06 72.34 71.62 72.60 72.44
72.18 71.66 71.78 71.93 72.25 73.02 73.33 73.63 73.78 74.45 74.41 73.98 73.92 73.87 73.88 73.95 74.00 73.88 73.59 73.46 74.29 74.54 74.82 74.20 73.82 73.95 73.17 72.31 71.73 71.84 71.78 71.10 70.63 70.64 68.81 68.85 69.87 71.74 72.53 72.32 72.43 72.07 72.35
72.46 72.48 71.89 71.28 71.53 72.44 72.75 73.21 73.55 73.80 73.60 73.45 73.50 74.05 73.99 74.13 74.23 74.00 73.09 72.96 73.79 74.31 74.49 73.62 73.85 73.39 72.14 71.26 71.03 71.04 71.19 70.45 70.24 67.98 67.35 67.98 69.05 71.15 72.05 72.13 71.87 71.44 71.07
72.30 72.94 70.35 70.45 71.14 72.01 72.56 73.01 73.29 73.18 72.52 72.52 73.01 73.79 74.03 74.15 74.27 73.74 72.81 72.74 73.62 74.18 74.29 73.90 73.56 72.31 70.75 70.38 70.45 70.70 70.43 69.81 68.47 66.44 66.53 66.19 69.27 69.85 71.30 71.71 71.09 70.64 71.01
71.69 71.36 70.71 69.70 70.59 71.45 72.41 72.80 72.91 72.58 72.31 72.21 72.70 73.06 73.43 73.79 73.73 73.02 72.24 72.48 72.78 73.20 73.45 72.96 72.32 71.06 70.18 69.99 70.21 69.97 69.52 68.88 68.33 65.52 65.70 64.72 67.17 70.08 71.35 71.45 70.75 70.50 70.70
71.09 71.61 71.15 71.03 70.71 70.77 71.27 71.72 71.71 71.74 71.85 71.96 72.16 72.35 73.11 73.05 72.71 72.20 72.06 71.84 71.99 72.20 72.18 71.61 70.84 70.31 69.97 69.84 69.66 69.25 68.63 68.58 68.88 64.53 65.08 64.29 68.02 70.55 71.19 71.42 70.01 69.94 70.24
69.11 71.62 70.58 70.60 70.96 70.35 69.64 69.84 70.16 70.95 71.31 71.42 71.60 71.56 71.85 71.74 71.44 71.60 71.52 71.53 71.54 71.66 71.19 70.76 70.17 69.50 69.62 69.42 68.96 68.23 67.53 67.71 67.55 66.19 67.26 68.15 70.31 70.82 70.80 70.85 70.28 70.20 69.88
61.80 68.76 70.99 70.32 70.16 69.47 69.07 69.13 69.40 69.87 70.21 70.51 70.98 70.80 70.48 70.59 70.90 70.98 70.89 71.05 71.30 71.28 70.96 70.04 69.46 69.09 69.14 68.82 68.36 67.56 67.02 67.53 67.18 66.85 68.33 68.34 70.03 71.37 70.66 70.41 70.78 69.85 68.98
53.58 54.51 69.15 70.49 70.12 69.89 69.53 69.73 69.48 69.95 69.99 69.97 70.53 70.21 68.75 70.39 70.57 70.78 70.31 69.97 70.55 70.22 69.97 69.47 68.78 68.52 68.16 68.16 67.98 67.11 67.26 66.75 66.83 66.75 66.02 67.96 70.00 70.83 70.51 70.08 70.02 69.58 69.03
48.81 50.11 60.89 69.18 70.19 69.91 71.07 69.52 68.41 69.00 69.00 69.54 70.29 69.99 69.92 69.56 69.92 70.62 69.71 68.99 69.42 69.26 69.15 68.56 68.23 67.62 67.12 66.87 66.74 66.93 66.38 66.62 66.62 66.54 65.70 67.54 69.56 70.29 69.82 69.33 68.36 68.66 68.14
47.94 50.00 50.56 62.51 68.75 70.01 70.68 69.74 68.93 68.87 68.55 69.20 69.67 69.90 69.92 70.01 69.81 69.49 68.30 69.21 68.68 68.55 68.28 67.78 67.83 67.37 67.08 66.61 66.17 65.95 66.15 66.42 66.12 66.36 66.10 66.75 68.93 69.84 69.27 68.41 67.51 66.84 67.22
48.05 49.36 51.29 52.02 64.53 68.28 68.76 69.15 69.78 69.23 68.56 68.51 68.98 69.47 69.70 68.93 68.50 67.82 68.00 68.39 68.25 68.12 66.61 66.69 66.51 66.76 66.23 66.82 66.83 66.46 66.09 66.26 67.69 65.61 65.24 65.79 67.57 68.50 68.61 68.55 67.70 66.92 66.85
49.01 50.35 50.76 51.54 54.93 65.76 68.69 68.41 68.05 69.86 69.22 68.50 68.79 69.27 69.52 68.73 67.89 67.73 67.89 68.27 68.25 67.78 66.88 66.00 66.11 66.42 65.79 65.88 66.56 66.96 66.46 66.05 67.15 65.71 64.32 64.91 64.62 66.21 68.21 68.46 67.75 67.72 66.88
49.12 50.09 52.10 53.32 51.61 58.72 67.57 67.68 66.91 67.95 69.18 68.75 68.89 69.27 69.47 68.58 67.83 67.76 67.97 67.86 67.77 67.52 66.93 66.32 65.94 65.41 65.06 65.12 64.88 66.38 66.07 66.57 67.14 66.41 64.54 64.81 64.48 65.15 66.89 67.93 67.74 68.06 67.70
46.69 47.98 50.22 51.73 53.14 52.57 64.57 67.76 67.68 67.65 68.29 67.44 68.77 69.17 69.85 68.72 67.74 67.46 67.29 67.24 67.36 67.63 66.37 66.21 64.97 65.13 64.61 65.49 64.88 65.77 65.31 66.16 66.29 66.91 65.32 64.32 64.03 63.16 64.10 66.25 67.11 67.96 67.93
44.33 44.95 47.34 50.11 50.61 51.87 52.79 63.27 67.58 67.26 67.47 67.95 67.30 68.79 69.44 69.40 68.57 67.53 67.30 67.03 67.21 66.88 66.27 65.70 64.54 63.94 64.75 65.40 64.41 65.17 65.20 65.27 65.34 66.39 65.86 64.80 64.22 64.68 62.89 64.07 65.64 66.58 66.99
42.16 42.87 43.65 45.86 47.17 48.77 49.77 53.51 62.18 65.99 66.44 67.46 67.26 68.65 68.37 69.10 68.84 68.06 67.54 66.88 67.14 66.69 65.14 65.56 64.20 63.64 63.44 64.39 64.35 64.77 64.86 64.70 65.40 66.02 66.26 65.10 63.80 63.45 62.83 62.76 63.48 63.98 65.28
40.94 41.68 42.18 43.66 44.68 46.47 47.51 49.91 54.69 63.36 66.30 66.48 66.94 67.86 68.87 69.26 69.10 68.23 67.24 66.75 67.38 66.48 65.46 65.04 63.91 63.32 63.17 62.46 64.38 63.91 64.09 63.18 64.92 64.42 64.81 65.84 65.23 64.24 63.14 62.89 63.37 63.29 62.46
40.10 39.86 40.22 40.71 42.65 43.72 44.44 45.54 48.20 51.64 58.44 64.28 65.70 67.36 67.12 68.85 69.25 68.72 67.06 66.66 67.08 66.03 65.47 65.14 63.81 63.19 62.57 62.97 61.95 61.80 62.44 63.06 63.56 63.38 64.20 62.84 64.73 64.79 63.59 63.08 62.51 62.67 62.21
37.44 37.65 38.39 39.43 40.37 41.99 42.92 44.29 46.23 49.33 54.22 56.83 63.56 65.82 67.44 67.24 68.77 68.55 67.41 66.79 67.07 65.94 64.75 64.39 63.84 62.16 62.67 62.88 60.30 58.01 55.08 57.80 60.83 62.29 61.30 61.45 61.68 63.25 63.41 63.49 62.69 62.31 62.36
34.41 35.70 36.96 38.12 38.35 40.31 41.98 43.37 45.28 47.69 52.45 55.20 57.75 63.03 65.78 67.29 67.87 68.22 67.13 66.91 65.99 66.06 65.04 64.88 64.26 63.60 62.00 62.08 61.67 58.83 55.13 53.42 56.40 59.19 60.08 60.87 60.91 61.02 62.51 62.97 62.80 62.53 62.13
33.33 35.09 35.54 36.05 36.63 38.71 40.95 41.81 43.17 44.85 47.76 51.07 54.24 56.78 61.90 66.39 67.25 67.66 66.98 66.35 66.16 65.54 65.57 64.84 64.32 63.81 63.41 61.09 60.68 61.40 58.70 57.44 53.68 54.33 57.91 59.55 60.34 60.55 60.15 61.53 62.72 62.80 62.81
33.21 34.04 35.05 35.14 35.59 37.92 40.50 42.09 44.19 45.50 48.08 49.93 51.85 54.78 56.21 63.34 66.96 67.10 66.94 66.13 65.74 65.52 64.60 64.83 64.00 63.67 64.26 63.01 62.22 59.44 59.75 58.67 59.22 56.91 52.92 56.13 58.29 59.85 60.72 60.64 62.05 62.66 63.14
32.61 33.18 33.92 33.79 35.57 37.29 40.34 42.77 44.12 44.74 46.37 48.39 50.65 53.11 54.65 58.96 64.90 67.21 66.88 65.83 65.80 65.41 64.80 64.54 64.50 63.94 63.73 63.60 63.03 60.05 59.84 60.38 58.08 56.42 54.99 54.20 56.79 57.23 60.91 61.05 60.97 62.07 62.53

GFSSE_sfc_wetblb_132.txt.gz
Wetbulb
69.64 71.52 72.37 73.37 73.47 73.42 72.90 72.56 72.54 72.84 73.44 73.49 73.59 73.72 73.72 73.87 74.08 74.45 74.60 74.61 74.95 75.28 75.17 74.57 74.36 74.12 73.84 72.69 72.75 72.38 72.33 72.24 72.23 73.01 73.66 73.70 73.22 73.35 73.04 72.96 72.77 72.00 72.73
70.31 71.61 71.87 72.86 73.29 73.56 73.64 72.92 72.69 72.89 73.69 73.63 73.66 73.49 73.26 73.44 73.75 74.12 74.52 74.60 75.00 75.11 74.24 73.69 74.22 74.02 73.10 72.87 72.24 71.82 71.84 71.60 71.57 72.12 72.91 73.35 72.83 72.65 72.80 72.51 71.84 71.99 72.35
70.46 71.40 72.20 72.07 72.98 73.43 73.76 73.65 73.34 73.69 73.82 73.75 73.52 73.25 73.31 73.39 73.56 73.73 74.09 74.49 74.93 74.88 74.14 73.72 73.64 73.24 72.83 72.50 71.70 71.68 71.66 71.23 71.00 71.57 71.48 69.01 70.39 72.55 72.27 72.17 71.92 72.33 72.17
71.29 71.23 71.43 71.77 72.40 73.05 73.06 73.50 73.59 74.04 73.92 73.69 73.59 73.60 73.63 73.51 73.32 73.56 73.62 73.74 74.25 74.70 74.67 73.99 73.47 73.20 72.68 71.75 71.46 71.34 71.31 70.76 68.19 68.68 68.00 68.39 69.60 70.74 71.35 71.91 72.12 71.95 72.22
71.07 71.59 71.51 71.10 71.61 72.49 72.84 73.05 73.22 73.60 73.25 73.20 73.20 73.65 73.70 73.74 73.59 73.25 72.74 73.18 73.72 74.54 74.69 73.77 73.87 73.49 71.71 70.72 70.81 70.98 70.85 69.18 67.73 67.55 67.58 68.79 68.87 69.46 69.70 70.96 71.51 71.02 70.62
71.42 72.01 69.89 69.70 70.84 71.77 72.61 72.78 72.97 72.93 72.32 72.40 72.60 73.33 73.78 73.88 73.79 73.10 72.16 72.74 73.57 74.02 74.38 74.14 74.09 72.20 70.61 70.10 70.17 70.21 70.02 68.24 67.56 66.75 66.20 68.93 68.75 69.58 69.46 69.84 70.30 70.08 70.29
70.21 70.45 70.47 68.83 70.08 71.40 72.39 72.77 72.79 72.41 71.83 72.00 72.42 72.80 73.24 73.64 73.43 72.65 71.91 72.26 72.85 73.07 73.46 73.11 72.40 70.86 70.14 69.72 69.96 69.73 69.07 67.92 66.27 64.58 64.74 66.94 68.64 69.58 69.91 70.45 69.95 70.60 71.08
70.42 70.17 70.43 70.81 70.34 70.40 70.82 71.65 71.37 71.59 71.56 71.42 71.69 72.18 72.82 72.82 72.42 72.10 71.67 71.61 71.98 72.04 71.99 71.59 70.82 70.31 69.76 69.57 69.23 68.68 67.99 67.85 66.57 65.20 64.80 63.74 68.53 69.98 70.14 70.25 69.48 69.78 70.37
68.52 69.75 69.53 69.58 70.34 69.81 69.26 69.42 69.59 70.36 70.79 70.87 71.19 71.20 71.41 71.07 70.82 71.37 71.41 71.35 71.40 71.30 70.94 70.67 69.92 69.48 69.50 69.23 68.73 67.61 66.98 67.50 66.17 63.77 64.67 63.25 68.29 70.06 70.26 70.47 69.71 69.59 69.86
51.97 58.14 68.93 68.53 68.91 69.05 68.76 68.75 68.96 69.32 69.64 70.02 70.38 70.23 69.75 70.00 70.26 70.48 70.25 70.49 70.90 70.79 70.57 70.07 69.28 68.79 68.84 68.35 67.86 66.80 66.47 67.14 66.13 65.01 65.32 65.22 67.89 70.34 70.19 70.47 70.75 69.91 69.65
50.03 49.38 61.25 69.27 68.80 68.42 68.44 69.08 69.22 69.61 69.59 69.37 69.98 69.69 69.10 70.27 70.20 70.40 69.79 69.45 70.07 69.98 69.71 69.13 68.57 68.10 67.61 67.52 67.41 66.80 66.72 66.39 66.02 65.72 66.05 67.72 69.93 71.30 70.85 70.32 69.59 69.55 69.31
47.97 49.45 49.79 56.07 66.19 68.67 69.99 68.80 67.97 68.48 69.10 70.15 70.27 70.34 70.38 68.92 69.51 70.61 69.38 68.46 69.05 68.89 68.64 68.33 67.90 67.41 67.18 66.36 66.36 66.60 65.69 65.84 65.79 65.63 64.81 67.03 69.77 71.10 70.77 70.33 69.24 68.86 68.69
48.65 49.69 51.11 52.64 53.44 60.86 68.20 68.69 67.54 67.72 67.63 68.56 68.92 69.77 69.25 69.44 69.05 69.35 68.56 69.05 68.83 68.35 68.44 67.52 67.04 67.57 66.48 65.66 65.14 65.21 65.40 65.77 65.44 65.08 65.70 66.29 69.13 70.59 70.38 69.90 69.47 69.04 68.22
46.38 47.15 48.35 50.62 51.84 52.36 53.68 66.58 68.15 67.49 67.63 67.70 68.69 69.17 69.42 68.78 68.04 68.17 67.99 67.95 68.29 68.51 67.15 67.09 66.87 66.40 65.87 65.72 65.65 65.31 65.16 65.03 65.19 64.65 65.04 65.62 67.41 69.57 69.81 69.17 68.37 68.18 67.43
43.99 45.58 45.94 47.87 49.35 50.60 52.01 54.03 63.46 67.65 67.81 67.90 67.81 69.25 69.73 69.10 68.04 67.63 67.47 67.90 68.33 67.86 66.82 66.18 65.46 65.75 65.31 65.25 65.86 65.75 65.06 65.73 66.15 64.45 64.55 64.70 65.85 67.19 69.22 69.16 68.59 67.85 67.20
43.09 42.86 44.12 45.27 46.93 48.22 49.05 50.42 51.85 62.69 68.13 67.72 67.72 68.36 69.57 69.11 68.35 67.45 67.34 67.61 67.52 67.50 66.66 65.96 65.46 65.08 64.79 64.91 64.69 65.42 65.46 66.24 66.24 65.04 64.33 64.52 63.64 65.25 66.96 68.61 68.38 68.24 67.76
40.96 41.56 42.45 43.52 44.73 45.21 46.60 48.22 49.49 53.06 62.69 66.87 67.81 68.05 68.49 69.02 68.15 67.50 67.21 67.12 67.39 67.19 66.46 65.61 64.65 64.14 63.71 64.44 64.29 63.75 65.94 65.80 66.44 65.33 64.94 65.33 63.16 62.41 64.05 66.18 67.47 68.10 67.93
40.17 40.26 41.37 42.86 42.31 42.72 44.06 45.81 48.58 50.31 54.17 63.11 66.67 67.69 68.25 68.88 68.10 67.76 67.07 67.03 67.52 66.89 66.18 65.35 64.70 64.11 63.65 63.92 63.11 64.09 64.73 65.22 66.17 66.04 64.72 64.72 64.94 64.65 62.66 63.88 65.53 66.51 67.12
39.12 39.37 39.40 39.87 39.98 41.37 42.26 44.06 45.99 48.28 51.10 60.58 65.40 66.13 67.36 68.49 68.41 67.71 67.35 67.00 66.89 66.65 65.78 65.60 64.45 64.29 63.31 63.53 63.60 64.64 64.49 64.27 64.73 66.01 64.71 64.68 64.30 63.83 63.57 62.87 63.38 63.77 65.33
37.42 37.73 37.57 38.29 39.47 40.04 40.80 42.23 43.66 45.76 48.81 51.09 55.71 64.89 65.72 67.30 68.12 67.74 67.56 66.71 66.58 66.22 65.44 65.20 64.42 63.97 63.47 63.92 64.45 64.25 62.48 64.42 64.87 65.20 65.07 64.91 64.16 63.67 63.11 62.71 63.39 63.24 62.21
35.25 35.36 35.39 36.24 37.05 37.66 37.60 38.02 40.20 41.02 43.99 47.06 53.32 56.30 63.00 65.65 66.79 67.26 67.18 66.29 66.60 65.80 65.65 64.94 64.24 63.14 61.44 61.68 62.39 61.47 62.04 63.10 63.37 63.91 64.89 64.94 63.60 62.83 61.94 61.61 62.35 63.49 63.19
33.19 33.79 34.40 35.06 35.54 36.07 36.59 37.51 39.39 41.01 43.29 46.86 48.42 53.97 59.70 61.15 65.14 66.39 66.98 66.05 66.53 66.15 65.34 64.42 63.59 61.48 62.28 62.58 60.49 60.42 57.99 58.68 60.47 62.68 63.00 62.35 62.46 63.65 62.48 61.96 61.66 62.01 62.70
31.97 32.52 33.43 34.14 34.75 35.82 36.49 37.27 38.94 41.06 43.54 45.40 48.95 52.63 56.30 60.06 62.04 65.51 66.51 66.67 65.94 65.85 64.96 64.29 64.07 63.00 61.32 60.83 60.88 58.61 55.03 53.99 55.60 58.17 58.73 59.44 60.34 60.73 62.34 62.49 61.74 61.59 61.59
31.53 32.92 33.30 34.48 34.88 36.57 37.03 36.92 36.77 37.65 38.96 43.25 47.34 50.26 51.58 55.10 58.50 62.16 65.55 66.39 66.16 66.16 65.25 64.72 64.61 63.50 62.73 61.31 59.48 60.33 57.58 56.50 54.52 52.98 56.82 58.54 59.42 59.88 60.33 61.43 61.96 61.74 61.69
31.76 32.23 33.67 34.32 34.68 35.81 36.42 37.77 37.59 38.89 41.84 43.97 46.19 47.59 49.01 51.98 56.27 58.36 57.96 64.64 65.88 65.87 65.91 64.98 64.27 63.59 63.48 62.74 62.25 60.09 59.42 58.00 57.03 54.30 52.21 54.99 56.94 59.38 60.31 60.59 61.67 62.10 61.87
32.18 33.33 33.24 33.97 34.45 35.92 37.52 38.55 39.14 40.16 40.98 42.20 43.92 45.75 48.32 51.44 54.51 57.03 57.19 56.01 65.51 66.07 65.33 64.98 64.47 64.14 63.59 63.44 63.04 61.47 61.17 58.53 56.07 55.79 53.71 53.44 55.45 56.98 60.34 60.50 60.28 61.51 61.92

GFSSE_sfc_wetblb_135.txt.gz
Wetbulb
69.12 71.21 72.37 73.31 73.28 72.85 72.48 72.26 72.40 72.76 73.07 73.55 73.70 73.83 74.11 74.29 74.32 74.43 74.65 74.83 75.05 75.36 75.12 74.79 74.17 73.97 72.95 72.37 72.83 72.46 72.41 72.10 71.86 72.69 73.07 73.03 72.96 72.83 72.62 72.84 72.68 71.30 72.75
69.85 71.44 71.65 72.68 73.27 73.15 72.77 72.49 72.46 72.86 73.19 73.50 73.37 73.34 73.58 73.85 73.98 74.06 74.38 74.53 75.03 75.29 74.72 74.05 73.75 73.28 72.43 72.31 72.04 71.61 71.46 71.48 71.53 72.31 72.80 72.76 72.34 72.16 71.62 71.87 72.15 71.21 72.20
70.29 71.38 71.88 71.91 72.86 73.19 73.37 72.89 72.78 73.27 73.34 73.47 73.22 73.11 73.53 73.83 74.02 74.02 74.12 74.18 74.46 74.47 73.68 73.25 72.95 72.78 72.26 71.90 71.35 71.35 71.18 71.08 71.10 71.62 71.74 69.35 69.18 70.88 71.00 71.07 71.51 72.11 71.94
70.57 70.82 70.98 71.66 72.40 72.98 72.96 73.12 72.86 73.48 73.36 73.27 73.23 73.29 73.36 73.71 73.95 74.04 73.83 73.57 74.07 74.26 73.85 73.09 73.02 72.88 72.34 71.39 71.04 71.02 71.01 70.14 69.70 70.05 67.81 67.84 68.88 69.84 69.89 69.41 70.73 71.23 71.94
70.19 70.65 70.95 70.77 71.52 72.27 72.64 72.84 72.84 73.11 72.89 72.88 72.93 73.41 73.54 73.40 73.77 73.75 73.09 73.14 73.85 74.49 74.25 73.27 73.20 72.75 71.40 70.55 70.39 70.55 70.20 68.71 67.93 67.82 67.10 67.28 68.06 69.87 70.32 69.68 69.60 70.27 70.77
70.50 70.87 69.57 69.90 70.63 71.81 72.37 72.61 72.76 72.74 72.04 71.95 72.33 73.24 73.53 73.45 73.45 73.00 72.44 72.95 73.91 74.31 74.33 73.84 73.81 71.76 70.23 69.79 69.82 70.02 69.06 67.76 67.41 66.25 66.57 68.65 68.65 70.21 69.77 69.10 69.42 69.45 69.80
69.44 69.71 69.67 68.97 69.86 71.22 72.19 72.48 72.44 72.18 71.69 71.70 72.02 72.43 72.93 73.37 73.09 72.05 71.86 72.39 73.05 73.45 73.51 73.47 72.39 70.83 69.95 69.56 69.75 69.33 68.20 67.25 65.45 64.72 65.03 66.59 68.09 70.05 69.26 68.92 69.50 69.31 69.58
69.60 69.64 69.55 70.41 69.99 70.11 70.75 71.27 71.10 71.49 71.33 71.16 71.47 72.01 72.47 72.40 72.25 71.89 71.38 71.73 71.59 72.08 71.97 71.78 70.91 70.21 69.72 69.37 69.18 68.47 67.44 67.01 66.00 64.14 63.68 64.86 68.47 69.71 69.09 69.61 69.67 69.05 69.70
56.53 55.71 65.92 68.52 69.52 69.27 68.40 68.76 69.42 70.12 70.84 70.83 70.72 70.83 71.12 70.97 70.72 71.27 71.19 71.34 71.25 71.30 70.96 70.78 70.13 69.40 69.31 69.04 68.62 67.37 66.58 66.90 64.93 63.86 64.15 62.62 69.24 70.31 70.32 70.04 70.15 69.49 69.56
50.42 51.51 51.91 54.81 63.09 67.93 68.14 68.23 68.23 68.97 69.49 69.92 70.26 70.05 69.56 69.74 70.03 70.18 70.06 70.50 70.65 70.79 70.54 70.06 69.09 68.71 68.67 68.29 67.71 66.51 66.31 66.72 65.08 63.14 63.17 62.79 66.87 70.49 70.51 70.17 69.80 69.67 69.68
49.47 49.53 49.99 52.00 52.87 53.33 63.34 68.73 69.16 69.39 69.33 68.23 69.51 69.58 68.45 69.97 69.63 70.00 69.58 69.24 69.92 69.94 69.56 69.25 68.62 67.98 67.64 67.55 67.21 66.38 66.34 65.70 65.28 64.27 64.35 66.23 67.10 70.19 70.51 70.62 69.89 69.66 69.55
45.40 46.62 46.79 48.42 50.45 51.72 53.94 54.81 65.47 68.18 69.08 68.68 69.91 69.83 70.10 69.70 69.29 69.94 69.26 68.23 68.94 68.83 68.63 68.25 67.78 67.22 66.97 66.03 66.05 66.56 65.11 65.36 65.18 64.62 64.59 66.21 68.59 70.24 71.05 70.70 69.77 69.02 68.69
44.09 44.80 44.79 45.81 47.84 48.60 49.72 52.77 54.88 64.85 67.23 68.50 69.40 69.01 69.38 69.24 69.21 69.74 68.99 68.63 68.63 68.38 68.14 67.30 66.69 66.98 66.70 65.17 65.29 64.56 64.71 64.71 64.45 64.61 64.70 65.80 69.03 70.57 70.78 70.35 69.61 68.95 68.81
41.69 42.13 42.97 43.81 44.69 45.19 47.38 49.20 51.08 53.19 61.45 67.51 68.09 68.77 68.20 68.05 68.25 68.51 68.62 68.94 68.97 68.90 68.20 67.03 66.83 66.72 65.47 64.97 64.51 64.37 64.42 64.10 64.18 64.32 64.13 65.19 67.15 69.87 70.46 69.92 69.32 68.93 68.38
40.00 40.86 41.36 42.49 42.76 43.26 43.95 45.45 47.26 48.63 52.36 57.60 66.88 68.24 68.30 68.22 67.61 68.12 68.07 68.19 68.47 68.70 67.75 67.04 66.34 65.39 64.97 64.52 64.61 64.44 64.24 64.22 64.58 63.96 63.98 64.35 65.36 67.95 70.09 69.89 69.41 68.70 67.77
39.73 39.61 40.65 40.99 41.55 41.52 41.62 43.01 44.19 45.96 49.55 51.73 57.63 67.13 67.91 67.76 68.57 68.03 67.58 67.52 67.96 67.84 67.34 66.81 65.41 64.89 64.66 64.59 64.43 64.84 64.68 64.55 65.26 63.61 63.57 63.99 63.83 65.72 68.33 69.47 69.07 68.51 67.78
37.56 38.53 38.62 39.93 40.10 39.62 40.23 41.38 42.31 44.22 47.38 48.71 52.58 59.08 66.97 67.09 67.29 68.00 67.72 67.30 67.47 67.60 66.97 66.11 64.92 63.86 63.52 63.90 63.99 64.07 64.58 64.78 65.92 63.99 63.69 63.57 63.08 62.78 64.16 66.94 68.09 68.23 67.89
35.85 36.02 37.25 38.50 38.02 38.55 38.98 39.57 41.07 42.69 44.35 46.23 49.66 55.72 61.81 65.61 66.95 66.67 67.30 67.33 67.61 67.07 66.61 65.78 64.77 63.96 63.28 63.26 63.23 63.32 63.99 64.24 65.82 64.96 64.53 65.13 62.51 62.53 62.19 63.92 65.61 66.82 67.25
34.88 34.99 35.18 36.00 36.34 36.94 37.69 38.26 38.92 40.64 42.47 45.38 48.22 49.94 53.08 61.89 66.24 66.51 66.57 67.44 67.82 67.06 66.50 65.80 64.46 64.03 62.76 62.36 62.89 62.22 63.06 63.76 65.08 65.45 64.54 64.49 64.51 63.50 62.36 62.48 63.27 63.72 65.21
34.27 34.75 35.05 35.43 36.01 36.37 36.69 36.98 37.51 38.38 41.09 43.42 44.66 47.13 50.75 54.72 58.46 66.27 66.43 66.57 66.77 66.77 65.85 65.46 64.02 63.82 63.09 62.53 63.16 62.42 62.57 62.68 64.61 64.90 64.19 64.41 64.39 64.10 62.88 62.28 62.42 62.75 62.10
33.64 33.66 33.96 33.99 34.66 35.09 34.57 34.28 34.88 35.22 37.09 39.73 42.37 45.70 48.37 49.27 55.49 62.01 65.94 65.83 66.45 65.74 65.85 65.27 63.91 62.59 61.20 63.07 61.58 58.87 60.08 61.24 61.76 63.48 64.89 63.83 63.71 63.92 62.04 61.88 62.22 62.65 62.61
32.13 32.58 32.87 33.63 34.41 35.35 35.46 35.83 36.24 36.43 37.64 39.40 41.55 43.75 46.25 50.14 56.42 60.56 64.31 65.03 65.73 65.63 65.72 64.24 63.92 63.15 62.73 62.60 60.11 59.54 56.63 59.25 59.93 61.83 61.40 62.66 62.50 62.16 61.34 61.26 61.15 61.74 62.46
30.86 31.45 32.58 34.04 34.66 35.45 36.23 37.04 37.17 37.65 38.19 38.44 40.62 43.15 47.35 51.81 52.47 54.77 58.79 63.48 64.12 65.65 65.04 64.26 64.33 62.79 61.65 60.64 60.17 58.27 53.98 54.05 55.34 57.87 59.72 60.46 60.74 61.43 61.67 61.25 60.57 60.92 61.81
30.82 32.25 33.90 34.30 34.35 35.65 36.60 35.74 35.77 34.90 34.39 37.33 39.12 42.32 45.65 49.21 50.53 52.48 55.84 60.07 63.04 65.06 64.98 64.51 64.76 63.69 62.20 60.51 58.43 59.44 57.45 56.26 54.89 53.02 55.60 57.37 58.77 60.04 60.92 61.20 61.19 60.98 60.92
31.37 32.64 33.63 33.71 34.37 34.74 35.12 35.86 35.83 35.98 37.73 39.15 40.03 41.48 43.01 45.33 47.72 50.83 53.99 57.46 57.26 58.12 63.38 64.62 64.24 63.12 62.87 61.80 61.29 58.54 58.15 57.00 54.62 53.51 52.52 54.84 56.89 58.39 59.77 60.95 61.33 61.37 61.11
32.35 32.82 32.82 33.10 33.47 34.29 35.00 35.86 36.32 36.27 37.22 38.93 40.43 41.00 42.69 45.03 47.38 51.62 55.33 56.04 57.14 56.30 58.55 61.61 63.95 63.32 62.80 62.26 61.82 61.47 60.77 58.98 57.19 55.04 52.14 52.23 55.85 56.13 59.29 59.11 59.54 60.90 61.22

GFSSE_sfc_wetblb_138.txt.gz
Wetbulb
67.83 70.63 72.32 72.90 73.08 72.77 72.58 72.43 72.36 72.65 73.28 73.72 74.39 74.49 74.40 74.22 74.09 74.08 74.35 74.46 74.80 75.37 74.96 74.49 74.36 74.11 73.16 73.19 72.94 72.50 72.08 71.75 72.02 73.16 73.13 73.15 72.52 72.50 72.48 71.87 71.95 71.41 72.48
69.26 70.81 71.61 72.58 72.90 72.94 72.69 72.49 72.47 72.68 73.36 73.60 73.79 74.11 74.25 74.26 74.19 74.39 74.35 74.64 75.05 75.51 74.74 74.31 73.92 73.72 72.77 72.58 72.06 71.80 71.74 71.32 71.69 72.25 72.97 72.65 72.50 72.39 72.20 72.21 71.58 71.11 72.49
69.82 70.85 71.39 71.89 72.76 73.09 73.14 72.76 72.99 73.38 73.37 73.42 73.44 73.68 73.89 74.25 74.37 74.31 74.26 74.42 74.80 75.13 74.66 73.89 73.37 72.94 72.52 71.83 71.23 71.20 71.03 71.09 71.41 71.77 72.32 69.86 70.14 71.83 71.63 71.41 71.28 70.86 71.88
70.12 70.44 70.57 71.76 72.29 72.75 72.84 72.61 72.76 73.30 73.04 73.16 73.11 73.48 73.84 74.19 74.03 74.11 73.84 73.34 74.21 74.54 74.26 73.59 73.06 73.02 72.44 71.14 70.92 70.95 70.83 70.78 70.74 70.54 68.99 68.85 69.77 71.19 70.97 70.77 71.24 71.14 70.90
69.68 70.16 70.55 70.89 71.28 72.25 72.49 72.68 72.60 72.81 72.59 72.68 72.79 73.31 73.63 74.09 74.31 73.98 73.33 73.06 73.70 74.17 73.92 73.11 73.14 72.97 71.21 70.35 70.39 70.37 70.07 69.37 69.09 68.26 67.39 68.07 68.65 69.89 70.06 71.02 71.12 70.70 70.00
70.15 70.45 69.50 69.57 70.48 71.64 72.34 72.63 72.69 72.60 72.08 71.93 72.28 73.07 73.43 73.78 73.89 73.51 72.59 72.90 73.45 73.96 73.94 73.79 73.30 71.84 70.36 69.84 69.95 69.93 68.68 68.11 67.66 67.04 67.33 69.06 68.71 70.48 70.38 70.67 70.11 70.04 69.38
55.19 60.26 69.28 68.92 69.86 70.74 71.61 72.34 71.85 71.64 71.56 71.63 71.84 72.25 72.88 73.09 73.03 72.41 71.98 71.96 72.60 73.02 73.85 73.23 72.40 70.82 69.83 69.50 69.71 69.10 67.79 67.24 65.55 65.61 66.64 67.53 68.53 70.89 70.70 70.21 70.06 69.93 69.69
51.25 52.45 54.31 58.11 60.05 64.46 69.46 69.83 70.11 70.59 69.54 70.92 71.27 71.67 72.29 72.38 71.95 71.50 71.69 71.36 71.41 71.50 71.68 71.85 71.19 70.30 69.56 69.29 69.30 68.39 67.08 66.73 65.51 64.22 65.59 66.57 68.73 70.59 70.31 69.94 69.63 69.38 69.36
49.52 49.26 50.49 51.57 54.58 56.38 61.38 65.69 67.85 69.02 70.23 70.08 69.49 70.67 70.99 70.97 70.68 70.97 70.87 71.26 71.05 70.84 70.74 71.19 70.32 69.38 69.37 69.00 68.61 67.29 66.47 66.73 64.66 64.58 64.22 64.90 68.90 69.62 68.98 69.96 69.38 69.62 69.42
47.12 46.39 46.35 47.91 50.46 50.35 52.43 57.56 61.13 67.98 68.37 69.42 69.49 69.22 69.22 69.49 70.01 70.27 70.20 70.42 70.64 70.58 70.68 70.55 69.59 68.94 68.67 68.18 67.78 66.81 66.05 66.53 65.01 64.00 64.00 63.20 67.48 69.96 70.05 69.36 69.74 69.70 69.42
45.42 44.38 44.37 45.16 47.35 47.65 50.03 53.37 55.21 58.15 67.06 68.75 68.77 68.03 66.96 69.13 69.09 69.63 69.54 69.26 70.02 69.66 69.59 69.41 68.76 68.02 67.58 67.58 67.42 66.70 66.32 66.16 65.23 63.66 63.49 64.57 66.33 70.31 70.82 70.56 69.61 69.82 69.82
41.76 42.26 42.62 43.28 44.56 45.10 47.95 48.67 50.05 51.83 56.99 65.21 68.41 68.85 68.23 68.61 69.75 68.77 69.02 68.25 68.70 68.75 68.59 68.41 67.87 67.24 67.06 66.63 66.74 66.72 66.02 65.93 65.46 64.86 64.43 65.84 66.72 69.73 70.35 69.62 69.54 69.20 68.86
40.49 41.22 41.52 41.93 42.95 42.25 43.62 45.65 46.58 48.97 50.61 53.92 63.27 67.62 68.32 68.97 68.37 68.68 68.68 68.70 68.05 67.76 68.07 67.62 66.83 66.60 66.24 65.63 65.58 65.15 65.25 65.30 65.30 65.05 65.22 65.34 67.71 69.72 70.54 70.32 70.05 69.15 68.78
38.39 39.18 40.15 40.59 41.07 40.66 41.75 42.72 44.83 45.94 47.54 49.39 52.09 55.85 67.11 67.94 67.47 67.53 68.32 69.03 68.61 69.08 68.55 67.35 66.63 67.11 66.61 65.02 65.04 64.75 64.69 64.40 64.62 64.78 64.48 64.24 66.71 69.89 70.42 70.45 70.17 69.57 69.06
36.61 37.52 38.21 38.85 39.17 39.18 39.83 40.99 41.54 42.59 44.71 46.95 49.29 51.17 58.17 66.08 67.33 67.65 67.60 67.87 67.96 68.71 68.50 67.33 66.84 66.45 65.06 64.78 64.57 64.65 64.33 64.20 64.63 64.56 64.35 64.00 65.02 68.38 70.55 70.09 69.96 69.33 68.90
36.15 35.96 37.15 37.54 38.08 38.18 38.29 38.79 39.18 40.67 42.50 44.95 46.61 49.21 52.19 57.76 65.76 66.95 66.91 67.18 67.35 67.97 67.66 67.13 66.68 65.28 64.50 64.94 64.25 64.40 64.44 64.28 64.55 64.48 63.99 64.60 63.59 65.37 67.91 69.73 69.58 69.42 68.50
34.80 35.25 35.87 37.14 37.57 36.90 37.07 37.48 38.22 39.00 40.84 42.15 44.02 46.25 48.85 53.89 55.84 64.49 66.33 66.37 67.06 67.70 67.24 66.62 66.17 65.48 64.32 64.52 64.08 64.21 64.56 64.33 64.78 64.35 64.01 64.30 64.22 62.97 64.74 67.28 68.29 68.60 68.35
34.03 33.99 35.35 36.76 36.10 36.16 36.18 36.79 37.65 38.09 38.66 39.61 42.09 45.02 47.43 49.33 52.07 55.51 64.58 65.86 67.15 67.11 67.00 65.97 65.36 64.14 63.62 63.76 63.72 63.67 64.24 64.36 64.72 64.82 64.01 64.15 63.96 64.43 63.15 64.18 66.08 67.06 67.33
33.67 33.94 34.04 34.84 35.01 35.36 35.95 36.47 36.81 37.32 37.58 38.90 40.83 42.73 43.76 46.76 49.16 54.05 55.80 65.39 66.64 66.59 66.08 65.77 64.74 64.33 63.29 63.32 63.17 62.98 63.65 63.76 64.22 65.04 64.09 64.07 63.35 63.12 63.10 62.51 63.13 63.92 65.39
33.22 33.88 33.96 34.44 35.05 35.28 35.91 36.14 36.52 36.87 37.56 38.05 38.40 40.04 42.46 44.24 47.50 49.31 50.85 56.02 65.86 65.68 65.63 65.49 64.72 64.37 64.15 63.37 62.82 62.34 62.43 63.29 64.00 64.44 64.39 64.79 64.41 63.66 62.71 62.32 63.37 63.40 62.44
32.69 32.82 32.96 33.53 34.63 34.61 34.53 34.45 34.87 34.84 36.46 37.72 38.68 40.03 41.38 42.75 44.52 45.72 48.13 54.91 62.37 61.08 63.86 65.19 64.78 63.62 62.97 62.95 60.69 60.14 60.54 60.94 61.80 63.82 64.22 64.03 63.82 63.88 63.07 62.79 62.62 63.27 63.12
31.54 32.04 32.81 33.57 33.91 34.97 35.24 35.33 36.04 35.93 36.92 37.91 38.88 40.24 41.46 43.54 45.89 48.47 51.50 54.66 57.33 60.46 58.32 64.84 64.02 63.04 63.00 62.81 60.60 59.50 57.22 58.53 60.89 62.03 63.15 63.10 63.14 63.91 62.75 62.75 62.18 62.31 62.79
30.32 31.69 33.23 33.81 34.37 35.02 35.42 35.20 35.94 36.35 37.03 37.12 37.87 38.52 40.45 42.14 44.19 46.68 49.81 50.96 53.83 58.12 61.20 63.02 64.01 63.46 61.32 62.25 61.50 58.55 54.29 54.99 56.90 58.83 61.41 62.13 61.90 62.01 62.08 61.76 61.50 62.15 62.34
31.21 33.27 33.88 33.86 33.99 34.65 34.97 34.32 34.20 33.74 33.16 36.07 37.65 39.21 40.41 41.76 42.77 44.85 47.62 48.85 51.24 56.68 60.59 62.26 64.00 64.06 62.68 60.79 61.67 61.08 58.23 56.76 55.66 53.74 56.54 59.87 61.48 61.08 61.06 61.12 60.99 61.25 61.80
32.46 32.91 33.17 33.50 34.09 34.06 34.19 34.28 34.71 34.54 35.58 36.93 38.38 39.28 40.80 42.60 43.46 44.71 45.96 47.32 50.30 55.19 56.38 60.67 62.05 62.98 63.30 61.94 61.01 60.59 56.88 56.18 55.66 54.65 53.11 55.25 58.17 59.80 61.46 61.38 61.50 61.14 61.04
31.96 32.89 32.46 32.76 32.95 33.69 34.07 33.82 34.57 34.49 35.40 36.24 37.25 38.22 40.63 43.13 44.26 45.37 46.16 48.06 52.95 54.73 54.71 57.11 60.38 58.16 59.42 62.45 61.90 61.60 60.42 57.82 54.87 54.37 52.72 53.67 56.73 56.62 59.94 60.88 60.93 61.47 61.57

GFSSE_sfc_wetblb_141.txt.gz
Wetbulb
70.53 72.87 72.43 73.12 72.96 72.91 72.48 72.29 72.31 72.81 73.51 74.41 74.61 74.28 74.01 74.09 74.08 73.97 74.46 74.67 75.06 75.25 75.50 74.80 74.55 73.63 72.74 73.00 73.33 72.93 72.64 72.11 72.47 73.18 73.77 73.28 72.44 72.51 72.74 72.85 72.39 71.74 72.95
72.31 73.15 71.68 72.69 73.24 73.03 72.80 72.61 72.45 72.93 73.27 74.01 74.35 74.30 73.96 73.99 73.92 74.19 74.29 74.64 75.09 75.50 74.87 74.40 73.90 73.48 72.33 72.98 72.51 72.14 71.86 71.87 72.11 72.59 73.31 72.83 72.78 72.80 72.51 72.57 71.84 72.05 72.34
71.89 72.82 73.12 71.78 72.79 73.19 72.93 72.88 73.14 73.02 73.06 73.31 73.92 74.19 74.19 74.18 74.31 74.16 74.20 74.44 75.06 75.32 75.08 74.58 73.80 73.17 72.52 72.12 71.69 71.52 71.51 71.39 71.75 72.19 72.67 72.22 72.20 73.21 72.39 72.19 72.01 72.05 71.74
71.97 72.37 72.63 71.41 71.94 72.62 72.93 72.62 73.06 73.05 72.71 73.15 73.18 73.85 74.20 74.32 74.42 74.40 74.27 73.84 74.72 75.08 75.22 74.18 73.60 73.63 72.88 71.20 71.16 71.03 70.94 71.03 71.05 71.40 71.70 71.57 71.59 72.29 71.89 72.03 71.79 71.42 71.42
64.47 70.05 65.94 68.23 70.30 71.81 72.45 72.68 72.74 73.07 72.75 72.72 72.81 73.37 73.85 73.86 74.23 74.22 73.53 72.79 73.87 74.33 74.89 74.05 73.68 73.62 71.75 70.49 70.53 70.59 70.74 70.62 70.00 70.37 71.60 71.70 71.57 71.29 71.02 71.50 71.67 71.31 70.73
57.73 58.14 59.43 62.04 63.22 67.11 70.97 71.79 72.33 72.26 72.04 71.98 72.20 72.88 73.48 73.71 73.43 73.64 72.85 72.98 73.81 74.07 74.34 73.88 73.67 72.57 70.43 69.97 70.01 70.10 69.43 69.21 68.36 71.10 71.29 70.81 70.89 70.87 70.73 71.03 70.56 70.42 70.07
53.52 54.35 54.56 58.25 58.87 60.60 62.71 64.68 68.43 70.58 71.26 71.55 71.56 72.36 72.76 72.92 72.97 72.44 71.95 72.67 72.98 73.48 73.53 73.44 72.79 71.42 70.11 69.63 69.91 69.36 68.34 67.91 70.68 70.72 71.21 71.21 71.21 71.35 70.42 70.02 70.12 69.87 69.70
50.46 51.20 51.99 54.52 55.96 56.56 58.47 60.25 62.26 67.19 69.68 71.01 70.91 70.48 71.41 72.41 72.13 71.98 71.32 71.22 71.50 72.17 72.23 72.26 71.57 70.48 69.76 69.62 69.39 68.56 67.34 66.98 68.93 70.23 70.48 70.60 70.68 70.95 70.38 69.75 69.62 69.05 69.27
49.88 49.45 49.71 50.77 52.01 53.01 54.60 56.76 57.69 59.78 66.10 68.97 70.25 70.18 69.69 69.11 70.00 71.23 71.29 70.91 70.93 70.65 70.96 70.54 70.80 69.93 69.52 69.20 69.07 67.76 66.55 66.80 69.63 69.20 68.96 69.82 69.84 70.16 70.25 69.56 69.86 68.92 69.18
48.51 48.36 47.53 48.48 49.34 49.19 51.58 53.85 54.89 56.04 57.67 62.28 68.90 69.46 68.79 68.45 68.86 69.11 70.26 70.31 70.57 70.29 70.56 70.45 69.92 69.13 68.93 68.60 68.00 67.24 66.31 66.77 69.79 69.07 68.64 69.10 68.58 70.14 69.73 70.56 69.65 68.88 68.79
47.03 46.77 46.87 46.46 47.50 47.20 49.27 50.55 52.13 53.64 54.66 56.13 62.42 67.17 69.00 71.32 71.50 71.09 69.49 68.76 69.92 69.64 69.14 69.59 68.76 68.42 67.91 67.75 67.78 67.06 66.65 70.64 70.37 69.66 69.53 66.44 67.40 70.28 70.69 70.47 69.40 68.72 68.60
43.79 44.76 45.19 45.26 45.81 45.73 46.91 48.50 49.44 50.40 51.88 53.33 55.90 55.67 61.87 70.25 71.30 70.34 69.28 67.17 67.69 68.07 68.02 68.11 68.07 67.10 67.68 70.80 70.42 67.87 70.54 70.66 70.21 69.92 69.17 65.03 66.56 69.78 70.63 70.49 69.57 68.97 68.66
42.61 43.37 43.55 43.86 44.71 44.58 44.85 46.19 47.01 47.76 49.31 50.60 52.78 54.29 55.32 60.35 70.07 70.76 70.46 70.19 71.49 69.00 71.77 70.21 70.63 70.77 70.68 70.67 70.43 70.27 70.44 70.75 70.31 70.09 68.57 65.17 66.62 67.81 70.66 69.96 69.95 69.68 68.84
41.55 41.77 42.50 42.80 43.30 43.57 44.52 44.74 45.21 45.93 47.18 48.03 49.71 51.56 53.00 56.61 57.54 68.55 69.98 69.67 69.97 70.43 70.55 71.40 70.77 70.73 70.65 70.43 70.30 69.84 70.15 70.02 69.71 70.13 69.32 64.95 66.37 68.86 70.09 70.78 70.15 69.91 69.25
40.16 40.86 41.38 42.13 42.62 42.43 42.87 43.41 43.95 44.35 45.29 46.38 47.37 49.82 51.05 52.13 54.53 59.26 67.13 70.13 69.12 68.97 69.49 69.13 69.47 69.63 69.80 68.28 69.61 69.60 69.34 69.58 69.52 69.53 70.01 64.64 64.57 67.77 70.53 71.20 70.21 69.64 69.61
39.62 39.70 40.89 41.20 41.95 41.75 41.82 42.31 42.64 43.65 44.42 44.87 45.96 47.34 48.77 50.86 52.03 55.78 58.84 66.39 68.26 68.61 68.63 68.84 68.30 68.37 68.33 67.14 67.33 69.29 69.03 69.08 69.21 69.32 69.70 69.32 63.55 65.79 68.64 70.57 70.69 70.21 69.49
39.04 39.31 39.74 40.57 41.29 41.00 41.04 41.49 42.02 42.94 43.17 43.42 44.28 45.89 47.60 48.92 50.64 51.55 53.75 59.02 65.30 67.86 68.19 68.13 68.19 68.87 67.56 66.36 66.51 68.49 68.93 68.79 68.38 68.66 69.25 69.43 67.73 63.04 65.03 67.76 69.13 69.39 69.14
38.53 38.26 39.19 39.56 39.97 40.38 40.54 41.00 41.45 42.05 42.36 42.93 43.49 44.46 45.60 46.41 47.56 49.14 50.93 53.98 61.96 66.34 67.72 67.10 66.50 66.34 65.88 65.68 65.10 67.43 68.02 68.58 68.20 68.38 69.16 69.26 69.20 68.83 64.83 64.90 66.68 67.71 67.81
37.98 37.81 38.10 38.99 39.54 39.59 40.21 40.79 41.44 42.02 42.03 42.82 43.24 43.61 44.25 45.10 46.56 47.21 48.57 52.54 56.15 56.60 64.83 66.57 65.74 65.47 64.54 64.74 64.70 66.45 67.73 67.79 67.73 67.56 68.37 68.90 69.03 69.00 68.75 64.08 64.27 64.61 65.74
37.62 37.86 38.02 38.93 39.21 39.32 40.07 40.49 40.79 40.80 41.61 42.14 42.25 43.00 43.84 44.31 45.30 46.25 47.53 49.33 51.03 53.07 54.63 65.30 65.10 65.07 64.59 64.66 64.15 65.23 67.02 67.54 67.72 67.48 67.55 68.46 68.63 68.60 68.90 68.80 67.90 66.86 62.99
37.19 37.07 37.64 37.83 38.38 38.62 38.18 37.26 36.90 36.66 38.62 40.01 41.42 42.41 43.15 43.00 43.70 44.16 46.12 48.94 50.59 52.08 54.44 62.02 64.81 63.29 63.47 64.45 63.20 63.46 64.52 66.66 66.94 67.40 67.88 68.12 68.03 67.62 67.76 68.23 68.04 67.65 66.36
36.01 37.03 37.41 37.42 37.79 37.92 37.03 36.55 36.40 36.82 37.64 38.75 40.03 41.23 42.39 42.49 42.85 42.69 44.74 46.59 50.71 54.38 55.63 57.80 63.42 62.07 62.14 64.26 61.53 62.35 59.49 60.86 62.75 64.61 67.07 67.49 67.81 67.41 65.75 66.98 67.33 67.43 67.40
35.57 36.39 36.75 36.86 37.17 37.21 36.52 36.23 35.83 36.84 37.39 36.81 38.30 39.20 40.51 42.63 43.82 43.54 43.55 46.08 49.15 52.02 53.58 55.76 60.12 56.73 54.11 59.88 63.68 62.83 58.71 56.87 61.16 63.63 63.95 65.36 66.65 66.89 66.72 66.45 66.76 66.94 67.28
35.07 36.61 36.77 36.81 36.20 36.56 35.80 34.40 34.13 33.14 32.48 34.90 36.37 37.86 39.06 41.29 43.34 44.50 45.26 44.75 45.40 48.47 52.40 56.49 59.22 58.52 57.89 56.37 60.55 63.86 65.09 63.63 59.24 59.01 62.41 64.16 66.09 65.88 66.58 65.78 65.64 66.12 66.66
34.90 35.13 35.86 36.20 35.55 35.04 34.83 34.55 34.27 33.67 34.55 35.60 36.05 36.98 38.24 40.61 43.09 45.25 46.03 46.06 45.36 48.54 50.77 53.84 56.52 59.71 58.24 60.10 57.99 61.15 63.16 62.70 63.04 61.09 58.40 60.08 62.99 65.42 66.49 66.35 65.80 65.60 65.91
34.75 34.33 35.09 35.09 34.35 34.86 34.40 34.89 34.70 34.21 33.67 33.60 34.24 35.20 37.05 38.94 40.99 43.50 45.67 46.98 46.85 48.58 51.00 54.55 58.41 61.03 61.33 60.47 60.24 61.35 61.06 60.87 60.11 61.16 60.30 61.21 60.51 62.52 65.18 66.14 65.66 65.61 65.98

GFSSE_sfc_wetblb_147.txt.gz
Wetbulb
71.88 73.33 72.07 73.35 73.86 73.89 73.75 73.57 73.51 73.70 74.16 74.84 74.39 74.26 74.32 74.21 74.52 74.51 74.47 74.78 75.27 75.49 75.43 75.69 74.64 73.72 72.97 72.43 73.10 73.96 72.83 72.50 72.65 72.90 73.04 72.64 72.58 72.69 72.94 73.68 73.42 72.77 73.09
69.91 71.11 68.79 71.29 72.72 73.34 73.72 73.76 73.97 73.84 73.97 74.16 74.76 73.96 74.34 74.38 74.39 74.39 74.57 74.73 75.09 74.94 75.19 75.19 74.34 73.59 72.52 72.34 72.05 72.06 71.83 72.48 72.74 73.23 73.22 72.39 72.65 72.71 72.77 73.14 72.12 71.42 72.43
68.67 69.24 68.66 67.12 68.81 69.73 71.06 72.20 73.20 73.96 73.78 73.62 74.04 74.25 74.11 74.24 74.26 74.37 74.44 73.82 74.85 75.14 75.41 75.31 74.41 73.74 72.86 72.17 71.92 72.02 71.66 72.42 72.70 72.75 73.51 72.82 72.53 73.08 72.72 72.52 72.35 71.88 71.70
67.68 66.27 64.47 63.88 65.60 66.73 67.69 68.87 70.27 71.63 72.92 73.21 73.01 73.49 73.96 73.60 73.25 73.25 73.30 73.35 73.83 74.46 75.59 74.91 73.87 73.98 74.11 72.80 72.40 72.06 71.98 71.91 71.94 72.12 71.78 72.30 72.02 73.10 72.67 72.35 72.18 71.87 70.69
65.48 62.41 60.22 60.34 61.87 63.62 64.11 65.29 66.79 68.55 70.02 72.14 72.72 72.88 73.19 74.07 73.32 73.59 73.09 72.93 73.71 74.21 74.96 74.74 74.41 74.56 73.96 71.81 71.43 71.70 71.47 71.48 71.25 71.09 71.63 72.07 72.22 72.84 72.40 71.45 71.85 71.47 70.83
62.41 61.88 58.73 58.39 59.22 60.37 61.10 61.78 62.83 64.17 65.58 68.68 71.45 72.31 72.65 72.75 73.59 73.17 73.01 72.93 73.34 73.86 74.30 75.04 74.08 73.90 72.76 71.04 70.58 70.90 70.79 70.65 70.28 71.52 71.56 72.18 72.07 71.75 72.18 71.87 70.96 70.62 69.74
59.57 60.12 59.57 59.26 58.04 58.52 58.94 59.41 59.54 60.43 61.81 64.69 68.27 70.77 71.68 72.33 72.51 72.62 72.22 72.23 72.72 73.41 73.96 74.22 74.03 73.01 72.23 70.59 70.28 70.32 69.97 69.94 71.23 71.04 71.41 72.37 72.26 71.87 71.63 71.02 70.50 69.72 69.51
58.44 58.96 58.95 60.13 59.43 58.25 57.44 57.66 57.92 58.44 59.25 60.51 63.25 64.57 66.27 69.12 70.70 71.51 71.65 71.87 71.83 72.04 72.31 72.60 72.58 72.33 71.56 70.24 69.87 69.68 68.92 68.67 70.53 71.00 71.69 70.86 70.98 71.78 71.30 71.02 69.85 69.34 69.24
58.36 58.14 58.26 58.36 58.70 59.40 59.84 57.48 57.00 57.58 58.01 58.59 60.00 61.05 61.00 63.95 68.55 70.29 70.96 71.07 71.36 71.20 71.24 71.58 71.63 71.33 70.98 69.84 69.60 68.99 67.88 68.10 70.21 70.86 70.50 70.39 71.30 72.06 71.38 71.14 69.90 69.05 68.78
57.62 57.21 57.12 57.48 57.63 57.64 58.20 59.46 58.66 58.89 59.10 59.75 61.19 61.65 61.26 64.24 68.53 69.29 69.73 70.09 70.51 70.87 70.85 70.90 70.50 70.45 69.83 69.37 68.79 68.51 67.46 67.52 70.13 70.34 70.02 70.26 70.90 71.59 71.51 71.31 70.05 69.17 68.56
56.26 56.15 56.57 56.20 56.67 57.12 57.26 57.54 58.88 59.95 60.31 60.41 60.42 61.00 60.81 62.08 63.63 67.53 69.26 68.15 69.33 69.44 69.46 69.90 69.78 69.11 68.47 68.71 68.51 68.36 67.75 70.55 70.57 70.21 69.49 68.36 70.85 71.02 71.09 71.08 69.72 68.96 68.76
54.11 54.94 55.11 55.39 55.40 55.93 55.56 57.10 57.97 57.65 58.05 58.54 59.36 59.53 59.83 60.81 61.66 61.50 64.30 67.77 67.21 67.64 68.55 68.45 68.55 68.44 68.40 70.63 70.88 68.53 70.27 70.52 70.96 69.90 69.39 68.03 70.22 70.58 71.14 70.75 69.69 69.24 68.83
53.73 53.98 54.15 54.56 55.07 54.93 54.70 55.07 55.77 55.95 56.78 56.76 58.49 57.76 58.62 59.17 60.63 60.91 61.57 63.84 71.11 69.93 70.73 69.39 69.97 69.88 70.23 69.93 70.85 71.47 70.87 70.56 70.28 69.94 69.09 66.96 69.32 70.33 70.92 71.12 70.43 70.05 68.74
52.57 52.88 53.58 53.56 53.64 54.00 53.70 54.47 54.46 54.55 54.91 55.56 55.80 56.83 56.61 56.78 57.73 59.12 59.66 60.81 64.45 68.40 70.95 69.20 70.22 71.19 71.04 70.34 70.40 71.17 70.12 70.69 68.98 70.57 67.89 65.56 67.43 69.44 70.46 71.29 71.13 70.28 69.12
50.99 52.04 52.24 52.66 52.35 52.49 53.02 53.22 53.48 53.61 53.99 54.36 54.47 55.51 55.71 54.68 55.17 56.82 58.11 59.07 60.95 62.72 65.90 70.06 69.64 68.62 69.16 70.67 70.82 69.91 71.00 71.22 69.85 69.03 68.65 64.52 65.54 67.80 70.26 70.95 70.60 70.24 69.46
50.48 50.74 51.50 51.39 51.61 52.09 51.85 52.33 52.05 52.98 53.37 53.10 53.67 54.21 54.63 54.16 53.91 54.35 55.44 56.60 58.26 59.88 60.94 65.11 67.40 70.55 67.42 68.33 70.22 70.47 69.42 70.41 70.79 69.17 69.57 65.90 63.97 65.43 67.56 69.58 70.79 70.95 70.11
49.79 49.99 50.08 50.62 51.39 51.22 51.07 51.17 51.39 51.85 51.75 51.84 52.42 53.84 53.68 53.69 53.36 53.08 53.24 54.07 55.71 57.95 60.53 61.40 66.14 68.14 70.38 69.69 67.96 69.94 70.06 69.49 70.14 70.28 69.29 68.85 66.97 63.48 65.28 67.69 69.39 70.18 69.81
49.55 49.23 50.24 50.43 50.82 50.67 50.65 50.71 50.85 51.12 51.07 51.17 51.95 52.04 52.45 52.73 52.59 51.96 51.69 52.69 54.63 56.10 56.58 58.31 59.90 64.44 66.76 67.75 69.13 68.77 69.25 69.39 69.12 69.39 69.21 68.47 68.51 69.35 64.37 64.96 67.01 68.59 68.69
49.61 49.39 49.49 50.19 49.76 49.53 50.15 50.39 50.44 50.67 50.08 50.23 50.26 50.37 51.04 50.85 50.77 50.50 50.79 51.75 52.95 53.36 54.43 55.58 57.68 60.84 64.11 66.23 67.30 69.18 68.51 69.03 69.18 69.24 68.93 68.14 68.75 68.68 68.61 64.19 64.82 65.98 66.94
49.52 49.68 49.35 49.43 49.33 49.24 49.56 49.38 49.10 48.78 48.60 48.75 48.36 48.51 48.53 48.49 48.48 48.25 47.22 48.79 49.79 50.28 51.72 54.26 56.00 58.60 60.17 63.83 65.07 65.88 68.18 68.05 69.40 69.21 67.85 68.67 68.13 68.74 70.02 69.27 67.93 67.84 64.14
48.76 48.24 48.27 48.15 48.47 48.15 47.24 46.01 46.16 45.18 45.97 46.29 46.80 46.89 45.67 45.81 45.69 44.20 43.90 44.30 46.17 46.96 49.35 51.33 54.25 55.55 56.49 60.61 63.39 64.45 66.00 65.92 66.88 68.37 67.61 67.42 67.00 67.53 68.53 68.72 69.44 69.06 67.26
47.16 47.20 47.17 47.22 47.46 47.41 47.12 46.34 46.08 45.20 45.69 45.47 45.90 44.84 45.11 43.97 43.22 42.30 42.79 43.23 44.47 44.65 45.41 47.09 49.76 51.43 56.16 58.16 59.86 61.46 59.06 61.12 63.50 67.59 67.98 66.95 68.24 67.42 67.45 68.14 68.57 68.51 69.40
46.15 46.09 46.04 46.34 46.95 47.11 46.79 46.42 45.35 45.48 44.28 42.97 41.56 41.51 42.07 41.97 42.40 42.32 43.31 43.88 44.08 44.55 44.54 45.74 47.26 46.89 48.88 56.39 61.21 61.02 57.28 56.48 61.61 63.83 65.88 65.86 67.14 66.90 67.13 67.53 68.04 68.78 68.22
45.28 46.19 45.99 45.93 46.28 46.40 46.52 44.49 42.11 40.20 38.43 39.21 38.02 39.32 40.75 41.16 41.66 42.54 43.38 43.28 43.88 43.89 43.90 45.60 47.25 48.92 48.57 50.27 57.10 62.78 61.52 63.28 59.05 57.08 61.94 62.84 65.38 66.54 67.54 68.27 68.29 67.89 69.27
45.07 44.71 45.34 45.24 45.53 45.88 45.49 43.02 40.45 39.00 38.78 38.56 38.27 37.64 37.95 38.87 39.77 40.12 40.88 40.45 41.88 42.37 43.54 45.03 46.37 46.68 50.42 49.59 54.23 58.55 61.02 62.63 62.17 59.69 57.73 59.23 62.18 65.48 67.19 67.99 68.18 67.86 68.27
43.73 43.21 43.79 43.61 43.79 44.68 44.36 41.85 39.87 38.09 36.88 35.50 35.85 35.30 36.06 37.40 37.88 37.84 38.83 38.32 39.41 40.80 42.15 43.90 45.15 47.27 48.09 51.15 52.92 56.62 57.67 58.42 58.14 58.17 58.23 58.80 60.02 62.96 66.00 67.26 67.65 68.32 68.86